GFSNIL_con_lsi_063.txt.gz
Lid_Strength_Index
-0 1 1 0 1 1 1 1 -1 0 0 0 0 0 0 1 1 0 1 1 1 1
0 0 1 0 0 0 0 0 0 -0 0 0 0 0 0 1 1 1 1 1 1 1
-0 -0 0 0 0 0 0 0 0 0 0 0 0 0 0 1 1 1 1 1 1 1
0 0 0 0 0 0 0 0 1 0 0 1 1 1 1 1 1 1 1 1 1 1
0 0 0 0 0 0 1 0 1 1 1 1 1 1 1 1 1 1 1 1 1 1
0 1 1 1 0 0 0 0 0 0 1 1 1 1 1 1 1 1 1 1 1 1
1 1 1 1 0 0 0 1 0 1 1 1 1 1 1 1 1 1 1 1 1 1
1 0 1 1 1 0 0 0 0 1 1 1 1 1 1 1 1 1 1 1 1 0
1 1 1 1 1 1 1 1 1 1 1 1 1 7 7 2 1 1 1 2 1 0
1 1 1 1 1 1 1 1 1 1 1 1 1 10 10 7 1 1 1 1 1 1
1 1 1 1 1 1 1 1 1 1 1 1 1 12 10 8 1 1 1 0 0 1
1 1 1 2 2 1 1 1 2 1 1 1 3 12 10 5 1 1 1 0 0 0
2 2 2 2 2 1 1 2 1 2 1 4 1 12 10 5 1 1 1 1 1 8
1 2 1 1 1 2 2 2 2 2 2 1 1 4 11 10 1 1 2 2 2 1

GFSNIL_con_lsi_066.txt.gz
Lid_Strength_Index
1 1 1 1 1 1 1 1 1 1 1 1 1 1 0 1 1 1 1 1 1 2
1 1 1 1 1 1 1 1 1 1 1 1 1 1 1 1 1 1 1 1 1 2
1 1 1 1 1 1 1 1 1 1 1 1 1 1 1 1 1 1 1 1 1 1
1 1 1 1 1 1 1 1 1 1 1 1 1 1 1 1 1 2 2 1 2 2
1 1 1 1 1 1 1 1 1 1 1 1 1 1 1 2 1 2 2 2 2 2
1 1 1 1 1 1 1 1 1 1 1 1 1 1 1 1 1 2 2 2 2 2
1 1 1 1 1 1 1 1 1 1 1 1 1 1 1 1 2 2 1 1 1 1
1 1 1 1 1 1 1 1 1 1 1 1 1 1 1 1 2 2 2 1 1 1
1 1 1 1 1 1 1 1 1 1 1 1 1 6 8 3 2 2 2 2 2 1
2 2 1 1 1 2 2 1 2 2 2 2 1 9 10 8 1 1 2 2 2 2
2 2 1 2 2 2 2 2 2 2 2 2 2 11 11 9 1 1 1 1 1 2
2 2 2 2 2 2 2 2 2 2 2 2 2 12 11 5 2 2 2 1 1 1
2 2 2 2 2 2 2 2 2 2 2 3 2 12 11 4 1 2 2 2 3 8
2 2 2 2 2 2 2 2 2 2 2 2 2 6 11 10 2 2 2 2 2 3

GFSNIL_con_lsi_069.txt.gz
Lid_Strength_Index
2 2 2 2 2 2 2 1 1 1 3 3 0 1 0 1 1 1 1 1 1 2
2 2 2 2 1 1 1 1 1 1 2 1 1 1 1 1 1 1 1 1 1 2
2 2 2 2 2 1 1 1 1 1 1 1 1 1 1 1 1 1 1 2 2 2
2 1 1 1 1 1 1 1 1 1 1 1 1 1 1 1 1 2 2 1 2 2
2 2 2 2 1 1 2 1 1 1 1 1 1 1 1 2 1 2 2 2 2 3
2 2 2 2 1 1 1 1 2 1 1 1 1 1 1 1 2 2 2 2 3 3
3 2 2 2 1 1 1 2 1 1 2 1 1 1 1 1 2 2 1 2 2 2
3 2 2 1 1 1 1 1 1 1 1 1 1 1 1 1 2 2 2 2 2 2
2 2 2 1 1 2 2 1 1 1 2 2 2 4 6 4 2 2 3 2 2 3
2 2 2 2 2 2 2 2 2 2 2 2 2 6 6 8 1 2 2 3 4 3
2 2 2 2 3 2 3 3 2 2 2 2 2 7 9 9 2 2 3 3 3 3
3 3 3 3 3 3 3 2 3 2 2 2 2 9 10 10 3 3 3 2 2 3
3 3 4 3 2 3 2 2 2 2 2 3 2 7 11 9 2 3 3 5 4 8
3 4 3 2 3 3 2 2 3 3 2 2 2 2 12 11 2 3 3 4 5 7

GFSNIL_con_lsi_072.txt.gz
Lid_Strength_Index
3 3 2 2 2 2 2 1 1 1 0 1 1 1 1 1 1 1 1 1 1 2
3 3 2 2 2 2 1 1 1 1 1 2 2 1 1 1 1 1 1 1 1 2
2 2 2 3 2 3 2 1 1 1 1 1 1 1 1 1 1 2 1 1 2 1
2 2 2 2 1 1 1 2 1 1 1 1 1 1 1 1 1 2 2 1 2 2
2 2 3 3 2 1 1 1 1 1 1 1 1 1 1 2 1 2 2 2 2 2
3 3 3 2 2 1 1 1 2 1 1 1 2 1 1 1 1 1 2 2 2 2
4 4 3 3 2 2 1 1 1 1 1 1 1 1 1 1 2 1 1 1 1 2
4 4 4 4 4 3 1 1 1 1 1 1 1 1 1 2 2 2 2 1 1 1
4 3 4 4 4 4 3 2 2 1 1 2 1 4 6 5 2 2 2 2 2 1
3 3 3 3 3 3 3 2 2 2 2 2 2 5 6 5 3 3 2 2 2 3
3 3 3 3 3 3 3 3 2 2 2 2 2 5 6 5 3 2 2 2 2 2
4 4 4 4 3 3 4 3 3 2 3 2 2 5 7 7 3 2 2 2 2 2
4 4 4 4 4 3 3 3 2 2 2 3 2 5 9 8 3 3 2 3 3 8
3 3 3 3 3 3 4 3 3 2 2 2 2 2 6 8 3 2 3 4 3 3

GFSNIL_con_lsi_075.txt.gz
Lid_Strength_Index
3 3 3 3 2 3 2 2 1 1 1 1 0 1 1 1 1 1 1 2 2 2
3 3 3 3 3 3 2 1 1 1 1 1 1 1 2 2 2 2 1 1 1 2
3 3 3 3 3 3 3 2 2 2 1 1 1 1 2 1 1 1 1 2 2 1
3 3 2 3 3 2 3 2 2 2 1 1 1 1 1 1 1 2 1 1 2 2
4 4 3 3 3 3 2 1 1 1 1 1 1 1 2 2 1 2 2 2 2 2
3 3 3 3 4 3 2 2 1 1 1 1 1 1 1 1 1 2 1 2 2 2
4 4 4 4 3 3 2 2 2 1 1 1 1 1 1 1 1 1 1 1 1 1
5 5 5 4 4 4 4 3 3 3 2 1 1 1 1 1 2 2 2 1 1 1
4 4 4 4 5 5 5 5 4 4 4 4 3 4 3 2 2 2 2 2 2 1
4 4 4 4 5 5 5 5 5 4 3 2 2 4 5 5 3 2 2 2 2 2
4 4 4 5 5 5 5 5 5 4 3 3 1 4 6 6 3 2 2 2 2 2
4 4 5 5 5 5 6 6 5 4 3 3 3 5 6 6 2 2 3 2 1 1
4 4 4 4 5 5 6 5 4 4 4 3 2 4 8 8 3 3 2 2 2 7
4 4 4 4 5 5 5 5 5 4 4 3 2 2 7 9 3 2 3 2 2 2

GFSNIL_con_lsi_078.txt.gz
Lid_Strength_Index
2 2 2 2 2 2 2 2 1 1 0 0 0 0 0 0 1 1 1 1 1 1
2 2 2 2 2 2 2 1 1 0 0 0 0 0 0 1 1 1 1 1 1 1
3 2 2 2 2 2 1 1 1 1 0 0 0 0 0 1 1 1 1 1 1 1
2 2 2 2 2 2 1 1 1 1 1 1 1 1 1 1 1 1 1 1 1 1
2 2 3 2 2 2 1 1 1 1 1 1 1 1 1 1 1 1 2 1 1 2
4 4 4 3 2 2 1 1 1 1 1 1 1 1 1 1 1 1 1 1 1 1
4 4 3 2 2 2 1 1 1 1 1 1 1 1 1 1 1 1 1 1 1 1
4 3 3 3 3 2 2 2 2 2 1 0 1 1 1 1 1 1 1 1 1 1
4 4 4 3 3 4 3 3 3 3 2 2 2 5 5 3 1 1 1 2 1 1
4 4 4 4 4 4 4 4 4 3 3 2 2 5 5 5 2 1 1 1 1 1
4 4 4 4 4 4 4 4 4 3 3 3 2 6 6 6 2 1 1 1 1 1
5 4 4 4 4 4 4 4 4 3 3 3 3 6 6 5 2 2 1 1 1 1
5 4 4 4 4 4 4 4 4 4 3 3 3 6 6 5 2 2 2 1 1 5
5 5 4 3 3 4 4 4 4 4 3 3 3 2 6 7 3 2 2 2 2 1

GFSNIL_con_lsi_081.txt.gz
Lid_Strength_Index
1 1 1 1 1 1 1 1 -0 -0 -0 -0 -0 -0 0 0 1 0 1 1 1 1
1 0 1 0 0 1 -0 0 -0 -0 -0 -0 -0 -0 -0 1 1 0 0 1 1 1
1 0 0 0 0 0 -0 -0 -0 0 -0 -0 -0 -0 -0 0 0 1 1 1 1 1
1 1 0 0 0 0 0 -0 0 0 0 0 0 -0 0 0 0 0 0 0 0 1
1 0 1 1 0 -0 0 -0 0 0 0 0 0 -0 0 0 0 1 0 0 0 1
1 1 1 1 0 0 0 0 0 0 0 0 0 0 -0 0 0 0 0 0 0 0
1 1 1 1 0 0 0 0 0 0 0 0 0 0 0 0 0 -0 -0 -0 -0 -0
1 1 1 1 1 0 0 0 0 0 0 -0 -0 0 -0 -0 -0 -0 -0 -0 -0 -0
3 2 1 1 1 1 1 0 0 0 0 0 0 4 4 2 0 0 0 1 0 -0
3 3 2 1 1 1 1 1 1 0 0 0 -0 5 5 4 -0 0 0 0 1 1
3 4 3 2 2 1 1 1 1 1 0 0 0 5 5 5 -0 -0 0 0 0 0
3 3 3 3 2 1 1 1 1 1 1 1 0 6 6 4 0 0 0 0 0 0
2 3 3 2 1 1 1 1 1 1 0 1 0 6 7 4 1 1 1 0 0 6
2 2 2 2 1 1 1 1 1 1 1 0 1 0 7 7 1 2 2 1 1 1

GFSNIL_con_lsi_084.txt.gz
Lid_Strength_Index
1 1 1 1 1 1 1 0 -1 -0 -0 -0 -0 -0 -0 0 0 1 1 1 1 1
1 1 1 0 0 1 -0 0 -0 -0 -0 -0 -0 -0 -0 0 0 0 0 1 1 1
1 0 0 0 0 -0 -1 -1 -0 -0 -0 -0 -0 -0 0 0 0 1 1 1 0 1
1 0 -0 0 -0 -0 -1 -0 -0 -0 -0 0 0 -0 0 0 0 1 1 0 1 1
1 0 0 0 -0 -0 -0 -0 -0 -0 -0 -0 -0 -0 0 1 0 1 1 1 0 0
1 1 0 0 -0 -0 -0 -0 -0 -0 0 0 -0 0 -0 -0 -0 -0 -0 -0 -0 -0
1 0 1 0 -0 -0 -0 -0 -0 -0 -0 -0 -0 -0 -0 -0 -0 -0 -0 -0 -0 -0
0 0 0 0 0 0 -0 -0 -0 -0 -0 -0 -0 0 -0 -0 -0 -0 -0 -1 -0 -1
1 1 0 0 1 1 1 0 -0 -0 0 0 0 5 3 0 -0 -0 -0 -0 -0 -1
2 1 1 0 1 1 1 0 1 0 0 0 -0 5 5 4 -0 -0 -0 -0 -0 0
4 3 2 1 1 1 1 1 1 1 0 0 0 6 6 4 -1 -0 -0 -0 -0 -0
2 3 3 3 2 1 1 1 1 1 0 1 0 6 6 3 -1 -0 -0 -0 -1 -0
1 1 2 1 1 1 1 1 1 1 0 2 0 7 7 3 0 0 1 -0 -1 3
3 2 1 1 1 1 1 1 1 1 1 0 1 1 7 7 0 1 1 1 0 -0

GFSNIL_con_lsi_087.txt.gz
Lid_Strength_Index
1 1 1 1 1 1 1 1 0 0 0 0 0 0 0 1 1 0 1 1 1 1
1 1 1 1 1 1 1 1 1 0 0 0 0 0 0 1 1 0 0 1 1 1
1 1 1 1 2 1 1 0 1 1 1 1 0 0 0 1 0 1 1 1 1 1
1 1 1 2 1 1 1 0 0 1 0 1 0 0 0 0 0 1 1 1 1 1
1 0 1 1 1 1 0 0 0 0 0 0 0 0 0 1 1 1 1 1 1 1
1 1 1 0 0 0 0 0 0 0 0 0 0 0 0 0 1 1 1 1 1 1
1 1 1 1 0 0 0 0 0 0 0 0 0 0 0 0 0 1 1 -0 -0 -0
1 0 0 1 0 0 1 0 0 0 0 0 0 0 0 0 -0 0 -0 -0 -0 -1
1 1 1 0 1 1 1 0 1 1 1 0 1 5 4 1 0 -0 0 0 -0 -1
1 1 1 1 1 1 1 1 1 1 1 1 0 6 6 3 -0 0 -0 -0 -0 0
1 1 1 2 2 1 1 1 1 1 0 1 1 7 6 4 -0 0 -0 -1 -0 -0
2 2 1 2 2 1 1 1 1 1 1 1 1 8 7 3 0 0 0 -0 -0 -0
4 2 3 1 2 2 1 1 1 1 1 2 1 9 8 3 0 1 1 0 -0 4
5 4 3 3 1 1 2 2 1 2 1 1 1 4 9 7 0 1 1 1 1 0

GFSNIL_con_lsi_093.txt.gz
Lid_Strength_Index
2 2 2 2 2 2 2 2 1 1 1 1 1 1 1 1 1 1 1 2 2 2
2 2 2 2 1 1 1 1 1 2 2 1 1 1 2 4 4 1 1 2 1 1
2 2 2 2 2 1 1 2 4 4 4 2 3 3 2 3 3 4 1 1 2 2
2 2 2 2 2 1 2 4 4 4 3 3 4 2 3 3 2 3 4 1 2 2
4 2 2 2 2 1 2 3 3 2 2 2 2 2 3 2 2 3 4 2 2 2
6 4 2 2 2 2 1 2 3 1 2 2 2 2 1 1 2 3 2 2 2 2
7 6 5 3 1 1 1 2 3 2 1 1 1 1 1 1 2 2 1 1 1 2
8 7 7 5 3 1 1 1 1 1 2 2 2 2 2 2 2 2 2 2 2 2
8 8 7 7 6 3 2 1 1 2 2 3 1 3 4 2 3 2 2 3 4 4
7 7 7 6 7 6 4 2 2 2 2 2 2 5 7 6 2 2 4 4 5 4
8 7 6 6 7 7 5 4 2 2 2 2 2 6 7 7 2 4 3 4 4 3
7 7 7 7 7 8 8 4 2 2 2 2 3 6 7 5 3 3 3 3 2 2
7 7 8 8 7 7 7 5 3 2 2 2 3 6 8 4 2 3 2 3 2 4
7 8 8 9 8 6 6 6 4 3 2 2 2 3 8 8 2 3 3 2 3 4

GFSNIL_con_lsi_096.txt.gz
Lid_Strength_Index
2 3 2 2 2 2 2 1 1 1 1 1 1 1 1 1 1 1 1 2 2 2
4 4 3 3 2 1 1 1 1 1 1 1 1 1 1 1 2 2 3 4 4 4
6 4 3 3 3 3 2 1 1 1 1 1 1 1 2 2 2 2 3 3 3 3
7 6 6 4 3 3 2 1 1 1 1 1 1 2 4 4 3 4 3 2 2 2
8 8 8 7 6 5 4 2 2 1 1 1 1 2 3 3 3 4 4 2 2 2
9 9 8 8 7 6 6 4 2 2 2 2 1 2 1 3 2 3 3 2 2 2
9 8 8 8 7 7 6 6 4 2 1 1 1 1 1 2 2 2 2 2 2 2
8 8 8 8 7 7 7 6 5 4 1 1 1 1 2 2 2 2 2 2 1 1
9 9 8 8 8 6 6 6 6 5 3 2 1 4 5 4 2 2 2 2 2 1
9 9 8 9 8 7 6 6 7 6 3 2 2 5 6 5 2 2 2 2 2 3
10 10 8 8 8 7 7 7 6 5 3 2 2 5 7 6 3 3 3 2 3 5
10 9 8 8 8 8 7 7 8 6 6 3 2 5 6 4 2 3 2 2 3 3
10 8 7 7 8 8 8 7 7 6 6 5 2 6 6 5 3 4 2 3 3 5
7 7 7 7 7 9 9 8 7 6 7 4 2 2 7 8 4 3 3 3 2 3

GFSNIL_con_lsi_102.txt.gz
Lid_Strength_Index
7 7 6 6 6 5 3 2 1 0 0 0 0 0 0 1 1 1 1 1 1 2
7 7 8 7 6 5 4 3 3 2 2 1 1 1 0 1 1 1 1 1 1 2
8 8 8 7 6 6 5 4 4 4 4 3 2 2 2 1 1 1 1 1 1 1
8 8 7 7 7 7 6 6 6 6 6 5 5 4 3 2 1 2 1 1 2 2
9 8 8 8 7 7 7 7 7 7 6 6 5 4 3 2 1 2 2 2 2 2
9 9 9 8 8 8 8 8 8 7 8 8 7 7 6 3 3 2 2 2 2 2
9 9 9 9 10 9 9 8 8 8 8 8 8 7 6 5 4 3 1 1 1 1
10 10 10 10 10 9 9 8 7 8 9 8 7 5 4 3 3 2 2 2 1 1
10 10 10 10 10 10 9 9 9 9 9 8 6 6 6 5 5 2 2 2 2 1
11 10 10 10 10 10 10 10 9 9 8 7 6 7 7 6 4 3 2 2 2 2
11 11 11 10 10 10 10 10 9 8 7 7 6 7 8 6 4 3 1 1 1 2
11 12 11 11 10 10 10 9 9 7 7 7 7 8 8 6 5 4 3 2 1 1
11 11 11 11 10 10 9 8 7 6 6 6 7 8 8 7 5 4 4 2 1 5
11 11 11 11 10 9 7 7 7 7 6 6 7 7 9 8 5 5 3 3 2 2

GFSNIL_con_lsi_105.txt.gz
Lid_Strength_Index
3 4 4 3 3 4 3 3 2 2 1 1 -0 -0 -0 0 0 0 0 0 1 1
4 4 4 3 3 4 3 4 3 3 2 1 1 1 0 0 0 0 0 1 1 1
4 4 4 4 5 5 5 4 4 3 3 3 3 3 2 2 1 1 1 1 1 1
5 5 5 5 5 5 5 5 4 4 4 5 4 4 3 3 3 2 1 1 1 1
5 5 6 6 6 5 5 4 4 5 5 5 5 5 5 5 5 4 3 2 1 1
6 6 6 6 6 5 5 6 6 6 6 6 6 6 6 6 5 5 4 2 2 1
6 6 7 6 5 5 6 7 7 6 6 6 6 6 6 6 5 5 4 3 1 1
6 6 6 6 6 7 7 7 7 7 6 6 6 6 6 6 6 6 6 4 3 0
7 7 7 7 8 7 7 7 7 7 6 6 6 8 8 7 7 7 6 4 3 1
7 8 8 9 8 8 8 7 8 7 7 7 7 8 9 8 6 6 6 5 2 1
9 10 9 9 9 9 8 7 7 7 8 8 7 8 7 7 5 5 5 4 3 1
10 11 10 10 10 8 7 7 7 7 7 7 6 7 8 7 5 5 5 4 3 1
11 11 11 10 9 7 7 8 7 7 5 7 7 7 8 7 5 6 6 4 3 3
11 11 10 8 8 8 8 8 7 6 6 6 6 6 8 8 6 7 5 5 2 1

GFSNIL_con_lsi_108.txt.gz
Lid_Strength_Index
0 1 1 0 1 1 1 1 -1 -1 -1 -1 -1 -1 -1 -0 -0 -0 0 0 1 1
1 1 1 1 0 1 0 1 1 0 1 1 1 1 0 1 -0 -0 0 0 0 1
2 1 1 1 1 1 1 1 1 1 1 2 1 1 1 1 0 0 0 0 0 1
2 2 2 2 2 2 1 2 2 2 2 3 3 2 1 2 2 2 1 1 1 1
2 2 2 2 2 2 2 2 2 3 3 3 2 2 3 3 3 4 4 3 3 2
2 2 2 2 2 2 3 3 3 3 3 3 4 4 4 4 4 4 4 4 4 3
3 3 3 3 3 3 3 3 3 3 4 4 4 4 4 5 5 5 5 4 4 4
3 3 3 4 4 4 3 3 3 4 4 5 5 5 5 5 5 5 5 5 5 5
3 3 4 4 4 4 3 4 5 5 5 5 6 8 7 6 6 6 6 6 6 5
4 4 5 5 4 5 5 5 5 6 7 7 5 8 8 8 6 6 7 6 6 4
5 6 6 7 6 6 6 6 6 7 5 5 6 8 9 8 6 6 6 6 5 3
7 7 8 8 7 6 6 6 6 5 6 6 6 8 9 8 6 6 6 5 4 3
10 10 9 8 7 6 7 7 7 6 7 7 5 7 8 7 5 7 6 5 4 5
11 10 9 8 6 7 7 7 8 8 7 6 5 6 9 8 6 6 6 5 5 2

GFSNIL_con_lsi_111.txt.gz
Lid_Strength_Index
-0 -0 -0 -1 0 0 0 -0 -1 -1 -1 -1 -1 -1 -1 -0 0 -0 0 1 1 1
-1 -0 -0 -1 -1 0 -1 0 -1 -1 -1 -1 -1 -0 -0 0 0 0 0 0 0 1
-0 -0 -0 -0 -0 -0 -0 -0 -0 -0 -0 -0 -0 -0 -0 0 -0 0 1 1 1 1
0 0 0 1 0 -0 -0 -0 0 0 0 1 1 0 0 1 1 1 1 0 1 1
1 1 0 0 0 0 1 0 1 1 1 1 2 1 2 2 2 2 2 2 2 2
1 1 1 1 0 0 1 1 1 2 2 2 2 2 2 2 2 2 2 3 3 3
2 1 1 1 1 1 1 2 2 2 2 3 2 2 3 3 3 4 4 3 3 4
2 2 2 2 2 1 2 2 2 3 2 2 3 4 4 5 5 5 5 5 4 4
2 2 1 1 2 2 2 2 3 3 4 4 5 7 8 6 5 5 5 6 5 4
2 2 2 2 3 3 3 3 4 5 5 4 4 7 8 7 5 5 5 5 5 5
4 4 4 4 4 4 3 4 5 5 5 4 5 7 8 8 6 5 4 4 4 5
5 6 6 6 6 5 5 6 6 5 5 5 5 7 8 7 5 5 6 5 4 4
6 7 7 8 8 7 7 6 6 5 4 6 4 6 8 7 6 6 7 6 5 5
8 9 10 10 9 7 7 7 5 6 6 5 4 4 8 9 7 7 7 7 6 5

GFSNIL_con_lsi_114.txt.gz
Lid_Strength_Index
1 1 1 1 1 1 1 1 0 0 -0 -0 -0 -0 0 0 1 1 1 1 1 1
1 1 1 0 0 0 0 0 0 0 0 0 0 0 0 1 1 1 1 1 1 1
0 -0 -0 -0 0 0 0 -0 0 0 0 0 0 0 0 1 1 1 1 1 1 2
0 -0 -0 0 0 0 -0 0 0 0 0 1 1 0 1 1 1 2 2 2 2 2
-1 -0 0 0 0 0 0 0 0 0 1 1 1 1 1 2 2 2 3 3 2 3
-0 0 0 1 0 0 0 1 1 1 1 2 2 2 2 2 3 3 3 3 4 4
1 1 1 1 1 1 1 2 2 2 2 2 1 2 2 3 3 4 4 4 5 5
2 1 2 1 1 1 2 2 2 2 2 2 2 3 4 4 5 5 6 5 5 5
2 3 2 2 2 2 2 2 2 2 2 2 3 6 7 6 6 6 7 7 6 5
3 3 3 3 3 3 3 3 3 3 3 3 5 7 8 7 6 7 6 6 6 6
4 4 4 5 5 5 5 4 4 4 5 6 5 8 8 7 7 6 5 5 5 5
6 6 6 6 6 6 6 6 5 6 7 6 5 7 8 8 5 5 5 5 6 6
7 7 7 7 7 7 8 8 7 7 7 6 5 7 8 7 5 6 7 7 6 6
8 8 8 8 9 9 8 8 8 7 6 6 6 5 7 7 6 7 7 7 7 6

GFSNIL_con_lsi_117.txt.gz
Lid_Strength_Index
4 4 4 4 4 4 3 2 2 2 1 1 1 1 1 1 1 2 2 2 3 2
4 4 4 4 4 3 3 2 2 1 1 1 1 1 1 2 2 2 2 2 2 2
5 4 4 4 4 4 2 2 2 2 2 2 1 2 2 2 2 2 2 2 3 4
5 4 4 4 3 3 2 2 2 2 2 2 2 2 3 3 2 3 3 3 4 4
4 3 3 3 3 3 3 3 2 2 3 2 3 3 4 4 3 3 4 4 4 5
4 4 4 4 3 3 3 3 3 3 3 3 3 3 4 4 4 4 4 4 5 6
5 5 5 4 4 4 4 4 5 5 4 4 4 4 4 5 5 5 5 6 7 7
5 5 5 5 4 4 4 5 5 4 4 4 4 3 5 5 5 5 6 6 7 7
6 5 6 5 5 5 5 5 5 4 3 3 3 5 5 5 6 6 8 8 7 6
6 6 6 6 7 7 7 7 6 6 4 4 4 6 7 7 7 8 7 7 6 7
8 8 8 8 8 8 7 7 8 7 6 5 6 8 9 8 7 7 7 7 7 6
8 9 8 8 8 8 8 9 8 8 7 7 7 9 9 8 7 7 6 6 6 6
9 10 8 8 8 8 9 9 8 7 8 8 8 8 9 9 7 6 6 5 6 7
10 9 9 9 8 8 9 9 9 9 8 7 7 7 9 8 6 6 7 7 7 7

GFSNIL_con_lsi_123.txt.gz
Lid_Strength_Index
7 7 7 7 7 7 6 5 5 4 4 4 3 3 3 4 4 3 3 3 3 3
6 7 7 7 6 6 5 4 5 5 5 4 4 3 3 3 3 3 3 3 3 3
7 6 6 6 6 6 6 5 5 5 4 4 4 3 4 4 3 3 3 3 3 3
7 6 6 7 6 6 6 5 5 4 4 3 4 3 4 4 4 4 4 4 5 5
8 8 8 8 7 6 6 5 5 4 4 4 4 5 5 5 4 4 5 5 5 5
8 8 7 7 7 6 6 5 5 5 5 5 5 4 5 4 4 5 5 5 6 6
8 8 8 8 8 7 7 7 7 7 6 6 5 5 4 4 5 6 5 5 6 6
8 8 8 9 9 9 8 8 8 8 7 7 6 5 5 5 6 6 6 6 6 6
9 9 9 9 9 9 9 9 9 8 8 8 7 6 6 6 7 5 6 6 6 7
10 10 10 10 10 10 10 10 10 10 9 9 9 7 7 6 7 6 6 7 7 8
11 11 11 11 11 11 10 10 8 10 10 10 8 7 8 7 7 7 7 8 8 8
11 11 11 11 11 11 10 9 8 8 9 9 7 7 8 8 8 9 9 8 7 6
11 12 12 11 11 9 9 9 8 8 7 8 8 9 8 9 10 10 9 8 7 6
11 11 10 10 10 10 9 9 9 8 8 8 8 9 10 10 9 9 8 8 7 6

GFSNIL_con_lsi_126.txt.gz
Lid_Strength_Index
6 6 7 5 6 5 6 5 5 5 4 3 2 2 3 3 3 2 2 2 1 1
6 6 7 6 6 6 6 5 4 4 3 3 3 3 3 3 2 2 2 1 1 2
6 6 6 6 6 6 6 5 4 4 4 4 4 3 3 2 2 2 2 2 2 2
6 7 6 7 7 6 6 6 5 5 5 4 3 2 3 3 3 3 3 3 3 2
7 8 8 8 8 7 7 7 7 6 5 4 4 4 4 4 4 4 4 3 4 4
8 9 9 9 8 8 8 7 7 6 6 5 5 5 4 4 4 4 4 4 4 4
9 9 9 8 8 7 7 7 7 7 7 6 6 6 6 5 4 4 4 4 4 4
9 9 9 9 8 8 8 8 8 8 7 7 7 6 6 5 4 4 5 4 4 4
10 10 10 9 9 9 9 9 9 8 8 8 8 7 7 6 6 6 6 5 5 5
10 10 10 10 10 10 10 10 9 9 9 9 8 8 8 7 6 6 6 6 6 6
11 11 11 11 10 10 10 10 9 8 7 8 8 8 8 7 6 6 6 6 7 7
11 11 11 11 11 10 10 9 8 8 7 7 7 8 8 7 7 7 8 8 6 6
11 11 11 11 10 9 9 9 9 8 7 7 7 8 8 8 8 9 8 7 6 7
12 11 10 10 10 10 10 9 9 8 7 7 7 7 8 9 9 8 8 7 7 6

GFSNIL_con_lsi_129.txt.gz
Lid_Strength_Index
0 1 1 1 0 1 1 2 1 1 1 1 1 1 -0 -1 -0 -0 0 0 0 1
3 2 3 2 2 3 2 3 2 2 2 2 2 0 -0 0 1 0 0 -0 -0 0
3 4 3 3 3 3 2 3 3 3 2 2 1 1 1 2 1 0 0 0 0 0
4 4 4 4 4 3 3 3 3 3 3 3 3 2 2 1 1 1 1 0 0 0
7 6 6 5 6 5 5 5 5 5 4 4 3 2 2 2 1 1 1 1 1 1
8 7 7 6 6 5 5 5 5 5 4 4 3 3 3 3 3 2 2 2 2 2
8 8 7 6 6 5 5 5 5 4 4 4 4 4 4 4 3 2 2 2 2 2
8 7 7 7 6 6 6 6 5 5 5 5 5 5 5 4 4 3 3 2 3 2
8 8 8 7 7 6 6 6 6 5 5 5 5 7 7 6 4 3 3 3 3 2
8 8 8 7 7 7 7 6 5 5 5 5 4 7 8 7 5 4 3 3 3 3
8 8 8 7 7 7 6 6 6 6 6 5 5 7 8 7 4 3 3 3 3 3
9 9 8 8 7 6 6 7 8 7 6 6 5 7 8 7 5 4 4 3 3 4
9 8 8 7 7 7 7 7 7 7 5 6 5 7 8 7 6 6 5 4 4 5
8 7 7 7 7 7 7 7 7 7 6 7 8 7 9 9 8 8 9 8 7 6

GFSNIL_con_lsi_132.txt.gz
Lid_Strength_Index
0 1 1 1 1 1 1 0 -0 -1 -1 -1 -1 -2 -2 -0 -0 -1 -0 -0 0 0
0 0 1 -0 -0 0 -0 -0 -0 -0 -1 -1 -1 -0 -1 -0 -0 -0 -0 -0 -0 0
0 -0 -0 0 1 1 0 0 1 1 1 1 1 0 -0 0 -0 0 0 -0 -0 -0
2 2 2 2 2 2 2 2 2 2 2 2 1 1 1 1 0 0 -0 -0 -0 0
3 3 4 4 4 3 3 3 3 3 3 3 3 1 2 1 0 0 0 0 0 0
5 5 5 5 5 5 4 3 2 2 2 2 2 2 2 1 1 1 0 0 0 0
4 5 6 6 6 5 5 4 3 3 3 3 3 2 2 2 2 1 1 0 0 0
5 5 5 6 5 4 4 3 3 3 3 2 2 3 4 4 3 2 1 0 0 -0
6 6 6 5 4 4 4 3 3 2 2 2 3 7 7 6 4 3 2 1 1 0
6 6 6 5 5 4 3 3 3 2 3 3 4 7 7 7 4 3 2 2 1 1
6 6 5 4 4 4 3 3 3 3 3 4 4 7 8 7 3 3 2 1 1 2
5 5 5 5 5 5 5 5 5 4 3 4 4 8 9 8 6 5 4 2 2 3
5 5 5 5 5 5 5 5 6 5 4 6 5 9 10 9 9 7 6 4 3 5
5 5 5 6 6 6 6 7 6 6 6 6 7 7 10 10 9 7 8 5 4 4

GFSNIL_con_lsi_135.txt.gz
Lid_Strength_Index
0 1 1 1 1 1 1 0 -0 -0 -0 -0 -0 -1 -1 -0 0 -1 0 0 0 1
0 0 1 0 -0 0 -0 -0 -0 -1 -0 -1 -1 -1 -1 0 -0 -0 -0 0 0 1
0 0 0 -0 0 -0 -0 -0 -0 -0 -0 -0 -0 -0 -1 -0 -0 -0 0 0 0 0
1 0 -0 0 -0 -0 -0 0 1 1 2 1 1 1 1 1 1 1 0 -0 0 0
2 2 2 2 2 2 2 2 2 2 3 2 1 1 1 1 1 1 1 0 1 1
3 3 3 4 3 3 4 4 4 4 4 4 3 2 1 1 1 1 1 1 1 1
3 3 3 3 3 4 4 5 5 4 4 3 2 2 2 2 3 3 2 1 0 0
3 3 3 3 3 3 3 3 3 2 2 2 2 4 4 3 3 3 2 1 1 0
4 4 5 4 4 4 4 3 2 2 2 2 3 6 6 5 4 3 3 2 1 1
4 5 5 4 4 4 4 3 3 3 2 3 3 7 7 7 4 3 2 2 2 2
4 5 4 4 4 4 4 4 4 3 3 3 5 8 8 8 4 4 3 3 3 3
4 4 4 4 4 4 4 5 5 4 4 4 4 8 9 9 7 7 5 3 2 2
4 4 4 4 4 4 4 5 5 5 4 5 5 9 10 10 8 5 4 3 2 5
4 4 4 5 5 5 6 5 6 6 6 6 7 8 10 10 7 7 6 5 5 5

GFSNIL_con_lsi_138.txt.gz
Lid_Strength_Index
1 1 1 1 1 1 1 1 -0 0 0 0 -0 0 0 0 1 1 1 1 1 1
1 1 1 1 1 1 0 0 -0 -0 0 -0 -0 -0 0 1 1 1 1 1 1 1
2 1 1 1 1 1 0 0 0 0 0 0 -0 0 0 1 0 1 1 1 1 1
3 2 1 1 1 1 0 0 1 1 1 1 1 0 0 1 1 1 1 1 1 1
3 2 2 2 2 2 2 2 3 2 3 3 3 3 3 3 3 2 2 1 2 2
3 4 4 4 3 3 3 3 3 3 3 4 3 3 3 3 4 4 3 3 3 2
4 3 3 2 3 3 3 3 2 2 3 3 4 5 5 5 4 4 4 3 2 2
3 3 3 3 3 2 2 3 3 3 4 4 4 6 6 5 5 5 4 3 2 2
4 4 3 3 3 3 4 4 4 4 4 4 5 7 7 7 6 5 4 3 2 2
4 4 4 4 4 4 4 3 4 4 4 4 6 8 8 7 6 4 3 4 5 4
5 5 4 4 4 4 4 4 4 4 4 4 6 8 9 8 6 6 5 4 4 4
6 6 5 5 4 5 5 5 5 5 5 5 5 8 9 9 7 6 6 5 4 5
5 5 6 6 5 6 5 6 6 5 4 6 6 9 10 10 9 8 7 5 5 7
4 5 5 6 6 6 6 6 7 7 5 6 7 9 11 11 9 8 7 6 7 9

GFSNIL_con_lsi_141.txt.gz
Lid_Strength_Index
2 2 2 2 2 2 2 3 3 3 2 2 2 2 3 3 3 1 2 2 2 2
2 3 3 3 3 3 3 2 2 2 2 2 3 2 3 2 2 3 3 3 3 2
4 5 5 5 6 5 4 3 3 3 3 3 3 3 3 3 3 4 4 4 4 4
6 6 6 6 6 5 5 5 5 4 4 4 5 5 5 5 5 5 6 6 6 5
6 7 8 6 6 6 6 6 6 5 5 5 5 6 6 7 6 6 6 6 5 5
8 7 7 7 7 7 7 6 6 6 6 6 7 7 7 8 7 7 7 6 5 4
8 7 7 7 6 6 5 5 5 4 5 7 7 8 8 8 7 7 6 5 5 4
8 7 6 6 5 5 6 5 5 5 5 6 7 8 8 8 8 8 7 5 4 3
6 6 6 6 7 7 7 7 6 6 5 7 7 8 8 7 9 7 5 6 5 4
6 7 7 7 7 8 8 7 6 5 5 7 8 8 9 8 8 8 6 6 5 5
7 7 7 8 9 8 7 7 7 6 5 7 8 8 9 8 9 7 7 6 6 8
7 8 9 9 10 9 8 7 6 6 6 7 7 9 9 9 10 9 9 7 6 8
8 8 8 8 9 8 7 8 8 7 6 7 9 10 10 10 10 10 9 7 9 9
9 8 8 8 9 9 8 10 10 9 8 8 10 10 10 10 10 9 9 9 10 10